Washington, VA

8:58 AM EDT on July 21, 2017 (GMT -0400)
Ronald Reagan Washington National

Weather History for KDCA - November, 2011

Change the Weather History Date:

Monday, November 14, 2011

  Actual Average Record
Temperature  
Mean Temperature 64 °F 50 °F  
Max Temperature 73 °F 59 °F 77 °F (1955)
Min Temperature 54 °F 42 °F 19 °F (1920)
Degree Days  
Heating Degree Days 1 15  
Month to date heating degree days 181 180  
Since 1 July heating degree days 407 409  
Cooling Degree Days 0 0  
Month to date cooling degree days 0 0  
Year to date cooling degree days 1925 1547  
Growing Degree Days 14 (Base 50)    
Moisture  
Dew Point 49 °F    
Average Humidity 58    
Maximum Humidity 72    
Minimum Humidity 44    
Precipitation  
Precipitation 0.00 in 0.10 in 1.56 in (1972)
Month to date precipitation 0.06 1.46  
Year to date precipitation 40.11 34.98  
Snow  
Snow 0.00 in 0.10 in 3.50 in (1908)
Month to date snowfall 0.0 0.2  
Since 1 July snowfall T 0.2  
Snow Depth 0.00 in    
Sea Level Pressure  
Sea Level Pressure 29.91 in    
Wind  
Wind Speed 13 mph (SSW)    
Max Wind Speed 21 mph    
Max Gust Speed 26 mph    
Visibility 10 miles    
Events      
T = Trace of Precipitation, MM = Missing Value Source: NWS Daily Summary

Daily Weather History Graph

Daily Weather History Graph

Search for Another Location

Airport or City:

Trip Planner

Search our weather history database for the weather conditions in past years. The results will help you decide how hot, cold, wet, or windy it might be!

Date:

Astronomy

Nov. 14, 2011 Rise Set
Actual Time 6:49 AM EST 4:55 PM EST
Civil Twilight 6:20 AM EST 5:23 PM EST
Nautical Twilight 5:48 AM EST 5:55 PM EST
Astronomical Twilight 5:17 AM EST 6:27 PM EST
Moon 8:00 PM EST (11/14) 10:05 AM EST (11/14)
Length of Visible Light 11h 02m
Length of Day
10h 06m
Waning Gibbous, 87% of the Moon is Illuminated
Nov 14
Waning Gibbous
Nov 18
Last Quarter
Nov 25
New
Dec 2
First Quarter
Dec 10
Full

Hourly Weather History & Observations

Time (EST) Temp. Dew Point Humidity Pressure Visibility Wind Dir Wind Speed Gust Speed Precip Events Conditions
12:52 AM 57.0 °F 44.1 °F 62% 30.01 in 10.0 mi SSW 12.7 mph - N/A   Clear
1:52 AM 57.0 °F 45.0 °F 64% 30.00 in 10.0 mi SSW 15.0 mph - N/A   Clear
2:52 AM 55.4 °F 44.6 °F 67% 29.99 in 10.0 mi SSW 11.5 mph - N/A   Scattered Clouds
3:52 AM 55.9 °F 45.0 °F 67% 29.99 in 10.0 mi SSW 9.2 mph - N/A   Mostly Cloudy
4:52 AM 55.9 °F 45.0 °F 67% 29.99 in 9.0 mi SSW 10.4 mph - N/A   Overcast
5:52 AM 55.0 °F 46.0 °F 72% 29.99 in 10.0 mi South 9.2 mph - N/A   Overcast
6:52 AM 55.4 °F 46.4 °F 72% 29.98 in 10.0 mi South 10.4 mph - N/A   Mostly Cloudy
7:52 AM 57.2 °F 46.4 °F 67% 30.00 in 10.0 mi SSW 8.1 mph - N/A   Overcast
8:52 AM 59.0 °F 48.0 °F 67% 30.00 in 10.0 mi SSW 13.8 mph - N/A   Overcast
9:52 AM 60.1 °F 48.9 °F 67% 29.97 in 10.0 mi South 11.5 mph - N/A   Overcast
10:52 AM 64.9 °F 50.0 °F 58% 29.97 in 10.0 mi South 11.5 mph - N/A   Overcast
11:52 AM 66.9 °F 50.0 °F 54% 29.93 in 10.0 mi South 12.7 mph - N/A   Mostly Cloudy
12:52 PM 70.0 °F 50.0 °F 49% 29.89 in 10.0 mi South 16.1 mph - N/A   Mostly Cloudy
1:52 PM 72.0 °F 50.0 °F 46% 29.86 in 10.0 mi SSW 18.4 mph 24.2 mph N/A   Mostly Cloudy
2:52 PM 73.0 °F 50.0 °F 44% 29.85 in 10.0 mi SSW 13.8 mph 24.2 mph N/A   Mostly Cloudy
3:52 PM 72.0 °F 50.0 °F 46% 29.83 in 10.0 mi SSW 17.3 mph 23.0 mph N/A   Mostly Cloudy
4:52 PM 71.1 °F 50.0 °F 47% 29.84 in 10.0 mi SSW 10.4 mph - N/A   Mostly Cloudy
5:52 PM 66.0 °F 50.0 °F 56% 29.83 in 10.0 mi SSW 11.5 mph 20.7 mph N/A   Mostly Cloudy
6:52 PM 70.0 °F 51.1 °F 51% 29.84 in 10.0 mi SSW 12.7 mph - N/A   Mostly Cloudy
7:52 PM 69.1 °F 51.1 °F 53% 29.83 in 10.0 mi SSW 15.0 mph - N/A   Mostly Cloudy
8:52 PM 69.1 °F 52.0 °F 54% 29.82 in 10.0 mi SSW 15.0 mph - N/A   Mostly Cloudy
9:52 PM 68.0 °F 52.0 °F 56% 29.83 in 10.0 mi SW 15.0 mph 23.0 mph N/A   Mostly Cloudy
10:52 PM 66.9 °F 53.1 °F 61% 29.82 in 10.0 mi SSW 12.7 mph 21.9 mph N/A   Mostly Cloudy
11:52 PM 66.9 °F 53.1 °F 61% 29.83 in 10.0 mi SSW 15.0 mph 26.5 mph N/A   Mostly Cloudy